カタログに戻る

TITAN 3C TRANSTAGE DEB

LostHEO
NORAD 28807·DEBRIS·🇺🇸 United States

打ち上げ Dec 21, 1965 から Cape Canaveral Space Force Station

Loading…

次のパス (今後24時間)

TLE

古いSource: Space-Track

元期: May 30, 2026, 09:53 UTC

1 28807U 65108BZ  26150.41184448  .00004907  00000-0  19630-1 0  9993
2 28807  25.4002 236.1826 6852486 201.2910 104.4063  2.70404482 41714

AllMySatでTITAN 3C TRANSTAGE DEBをリアルタイム追跡

Download on the App Store